Time,TemperatureF,DewpointF,PressureIn,WindDirection,WindDirectionDegrees,WindSpeedMPH,WindSpeedGustMPH,Humidity,HourlyPrecipIn,Conditions,Clouds,dailyrainin,SoftwareType,DateUTC
2013-02-20 00:05:00,20.9,5.0,30.41,NNW,347,0.0,0.6,52,0.00,,,0.00,TxWx,2013-02-20 06:05:00,
2013-02-20 00:10:00,20.8,5.0,30.42,NW,325,0.0,0.6,51,0.00,,,0.00,TxWx,2013-02-20 06:10:00,
2013-02-20 00:15:00,20.8,5.0,30.41,NNE,32,1.2,1.9,51,0.00,,,0.00,TxWx,2013-02-20 06:15:00,
2013-02-20 00:21:00,20.8,5.0,30.41,NE,55,0.6,0.6,51,0.00,,,0.00,TxWx,2013-02-20 06:21:00,
2013-02-20 00:26:00,20.8,4.0,30.41,ENE,77,0.0,2.5,50,0.00,,,0.00,TxWx,2013-02-20 06:26:00,
2013-02-20 00:31:00,20.9,4.0,30.42,NE,55,0.6,0.6,50,0.00,,,0.00,TxWx,2013-02-20 06:31:00,
2013-02-20 00:37:00,20.8,4.0,30.41,NE,55,0.0,1.9,51,0.00,,,0.00,TxWx,2013-02-20 06:37:00,
2013-02-20 00:42:00,20.8,4.0,30.41,North,10,1.2,1.9,51,0.00,,,0.00,TxWx,2013-02-20 06:42:00,
2013-02-20 00:47:00,20.8,4.0,30.41,NNE,32,0.0,3.1,49,0.00,,,0.00,TxWx,2013-02-20 06:47:00,
2013-02-20 00:53:00,20.6,4.0,30.41,North,10,0.0,4.3,49,0.00,,,0.00,TxWx,2013-02-20 06:53:00,
2013-02-20 00:58:00,20.6,4.0,30.41,North,10,0.0,0.6,49,0.00,,,0.00,TxWx,2013-02-20 06:58:00,
2013-02-20 01:03:00,20.5,4.0,30.41,NNE,32,0.0,0.6,49,0.00,,,0.00,TxWx,2013-02-20 07:03:00,
2013-02-20 01:09:00,20.4,3.0,30.41,NE,55,0.0,3.1,50,0.00,,,0.00,TxWx,2013-02-20 07:09:00,
2013-02-20 01:14:00,20.4,3.0,30.41,NE,55,0.0,0.6,50,0.00,,,0.00,TxWx,2013-02-20 07:14:00,
2013-02-20 01:19:00,20.4,3.0,30.40,NE,55,0.6,0.6,50,0.00,,,0.00,TxWx,2013-02-20 07:19:00,
2013-02-20 01:25:00,20.3,3.0,30.39,ENE,77,0.6,2.5,50,0.00,,,0.00,TxWx,2013-02-20 07:25:00,
2013-02-20 01:30:00,20.1,3.0,30.40,North,10,0.0,0.6,49,0.00,,,0.00,TxWx,2013-02-20 07:30:00,
2013-02-20 01:35:00,20.1,3.0,30.40,ENE,77,0.6,0.6,50,0.00,,,0.00,TxWx,2013-02-20 07:35:00,
2013-02-20 01:41:00,20.0,4.0,30.40,NE,55,0.0,0.6,51,0.00,,,0.00,TxWx,2013-02-20 07:41:00,
2013-02-20 01:46:00,20.0,3.0,30.40,North,10,0.0,0.0,50,0.00,,,0.00,TxWx,2013-02-20 07:46:00,
2013-02-20 01:51:00,20.0,3.0,30.41,NE,55,0.6,1.2,49,0.00,,,0.00,TxWx,2013-02-20 07:51:00,
2013-02-20 01:57:00,19.8,4.0,30.40,ENE,77,1.2,2.5,51,0.00,,,0.00,TxWx,2013-02-20 07:57:00,
2013-02-20 02:05:00,19.7,3.0,30.40,ENE,77,1.2,4.3,50,0.00,,,0.00,TxWx,2013-02-20 08:05:00,
2013-02-20 02:11:00,19.7,3.0,30.39,NNE,32,3.7,3.7,49,0.00,,,0.00,TxWx,2013-02-20 08:11:00,
2013-02-20 02:17:00,19.7,3.0,30.38,ENE,77,0.0,3.1,50,0.00,,,0.00,TxWx,2013-02-20 08:17:00,
2013-02-20 02:22:00,19.7,3.0,30.38,ENE,77,0.0,1.2,49,0.00,,,0.00,TxWx,2013-02-20 08:22:00,
2013-02-20 02:28:00,19.7,3.0,30.37,NE,55,1.9,5.6,49,0.00,,,0.00,TxWx,2013-02-20 08:28:00,
2013-02-20 02:33:00,19.6,2.0,30.37,ENE,77,3.7,5.6,48,0.00,,,0.00,TxWx,2013-02-20 08:33:00,
2013-02-20 02:38:00,19.5,2.0,30.37,East,100,3.1,5.6,48,0.00,,,0.00,TxWx,2013-02-20 08:38:00,
2013-02-20 02:44:00,19.4,2.0,30.38,ESE,122,1.9,3.1,49,0.00,,,0.00,TxWx,2013-02-20 08:44:00,
2013-02-20 02:49:00,19.2,2.0,30.38,ENE,77,2.5,3.7,49,0.00,,,0.00,TxWx,2013-02-20 08:49:00,
2013-02-20 02:55:00,19.1,2.0,30.38,East,100,1.2,1.2,50,0.00,,,0.00,TxWx,2013-02-20 08:55:00,
2013-02-20 03:00:00,19.0,2.0,30.39,NE,55,0.0,0.6,50,0.00,,,0.00,TxWx,2013-02-20 09:00:00,
2013-02-20 03:05:00,18.9,2.0,30.38,ENE,77,1.2,1.9,50,0.00,,,0.00,TxWx,2013-02-20 09:05:00,
2013-02-20 03:10:00,18.8,3.0,30.37,ENE,77,1.9,3.7,51,0.00,,,0.00,TxWx,2013-02-20 09:10:00,
2013-02-20 03:15:00,18.7,3.0,30.37,ENE,77,0.0,1.9,51,0.00,,,0.00,TxWx,2013-02-20 09:15:00,
2013-02-20 03:21:00,18.6,3.0,30.37,ENE,77,2.5,3.1,51,0.00,,,0.00,TxWx,2013-02-20 09:21:00,
2013-02-20 03:26:00,18.4,2.0,30.37,NE,55,1.9,3.1,51,0.00,,,0.00,TxWx,2013-02-20 09:26:00,
2013-02-20 03:31:00,18.2,2.0,30.37,ENE,77,0.0,3.7,51,0.00,,,0.00,TxWx,2013-02-20 09:31:00,
2013-02-20 03:37:00,18.1,2.0,30.38,East,100,2.5,4.3,51,0.00,,,0.00,TxWx,2013-02-20 09:37:00,
2013-02-20 03:42:00,18.0,2.0,30.38,ENE,77,1.9,4.3,51,0.00,,,0.00,TxWx,2013-02-20 09:42:00,
2013-02-20 03:47:00,17.9,2.0,30.38,NE,55,3.7,6.8,51,0.00,,,0.00,TxWx,2013-02-20 09:47:00,
2013-02-20 03:53:00,17.8,2.0,30.38,East,100,1.9,3.7,52,0.00,,,0.00,TxWx,2013-02-20 09:53:00,
2013-02-20 03:58:00,17.6,2.0,30.38,ENE,77,3.1,6.2,51,0.00,,,0.00,TxWx,2013-02-20 09:58:00,
2013-02-20 04:04:00,17.5,2.0,30.38,North,10,1.2,4.3,51,0.00,,,0.00,TxWx,2013-02-20 10:04:00,
2013-02-20 04:09:00,17.4,1.0,30.38,NE,55,0.6,1.9,52,0.00,,,0.00,TxWx,2013-02-20 10:09:00,
2013-02-20 04:14:00,17.3,2.0,30.39,NNE,32,2.5,3.1,53,0.00,,,0.00,TxWx,2013-02-20 10:14:00,
2013-02-20 04:19:00,17.2,2.0,30.38,NE,55,3.1,4.3,53,0.00,,,0.00,TxWx,2013-02-20 10:19:00,
2013-02-20 04:24:00,17.1,2.0,30.37,ENE,77,3.7,5.0,54,0.00,,,0.00,TxWx,2013-02-20 10:24:00,
2013-02-20 04:30:00,17.1,2.0,30.36,NE,55,1.9,2.5,53,0.00,,,0.00,TxWx,2013-02-20 10:30:00,
2013-02-20 04:35:00,17.0,2.0,30.35,East,100,1.9,3.1,54,0.00,,,0.00,TxWx,2013-02-20 10:35:00,
2013-02-20 04:41:00,16.9,2.0,30.35,East,100,1.2,2.5,54,0.00,,,0.00,TxWx,2013-02-20 10:41:00,
2013-02-20 04:46:00,16.8,3.0,30.35,NNW,347,0.6,3.7,55,0.00,,,0.00,TxWx,2013-02-20 10:46:00,
2013-02-20 04:51:00,16.7,3.0,30.35,ENE,77,5.0,6.8,55,0.00,,,0.00,TxWx,2013-02-20 10:51:00,
2013-02-20 04:57:00,16.5,2.0,30.36,NE,55,1.9,6.2,55,0.00,,,0.00,TxWx,2013-02-20 10:57:00,
2013-02-20 05:02:00,16.4,1.0,30.36,ENE,77,0.6,5.0,55,0.00,,,0.00,TxWx,2013-02-20 11:02:00,
2013-02-20 05:07:00,16.2,2.0,30.36,ENE,77,1.2,1.9,56,0.00,,,0.00,TxWx,2013-02-20 11:07:00,
2013-02-20 05:12:00,16.0,1.0,30.36,ENE,77,2.5,3.7,55,0.00,,,0.00,TxWx,2013-02-20 11:12:00,
2013-02-20 05:18:00,15.9,2.0,30.36,NE,55,1.2,2.5,56,0.00,,,0.00,TxWx,2013-02-20 11:18:00,
2013-02-20 05:23:00,15.8,2.0,30.35,ENE,77,1.9,5.0,57,0.00,,,0.00,TxWx,2013-02-20 11:23:00,
2013-02-20 05:28:00,15.8,2.0,30.35,ESE,122,0.0,3.1,57,0.00,,,0.00,TxWx,2013-02-20 11:28:00,
2013-02-20 05:34:00,15.8,2.0,30.35,ENE,77,3.1,5.6,57,0.00,,,0.00,TxWx,2013-02-20 11:34:00,
2013-02-20 05:39:00,15.8,2.0,30.35,NE,55,0.0,1.2,57,0.00,,,0.00,TxWx,2013-02-20 11:39:00,
2013-02-20 05:45:00,15.7,3.0,30.35,East,100,1.9,2.5,58,0.00,,,0.00,TxWx,2013-02-20 11:45:00,
2013-02-20 05:50:00,15.7,3.0,30.35,ENE,77,3.1,4.3,58,0.00,,,0.00,TxWx,2013-02-20 11:50:00,
2013-02-20 05:55:00,15.6,2.0,30.35,NE,55,1.9,2.5,57,0.00,,,0.00,TxWx,2013-02-20 11:55:00,
2013-02-20 06:01:00,15.7,2.0,30.36,NE,55,0.0,3.1,57,0.00,,,0.00,TxWx,2013-02-20 12:01:00,
2013-02-20 06:06:00,15.5,2.0,30.36,ENE,77,1.9,3.1,57,0.00,,,0.00,TxWx,2013-02-20 12:06:00,
2013-02-20 06:12:00,15.4,2.0,30.36,NNE,32,2.5,5.0,57,0.00,,,0.00,TxWx,2013-02-20 12:12:00,
2013-02-20 06:17:00,15.4,2.0,30.36,ENE,77,0.6,1.2,59,0.00,,,0.00,TxWx,2013-02-20 12:17:00,
2013-02-20 06:23:00,15.4,2.0,30.37,ESE,122,3.1,3.7,58,0.00,,,0.00,TxWx,2013-02-20 12:23:00,
2013-02-20 06:28:00,15.3,2.0,30.37,NE,55,1.9,5.0,59,0.00,,,0.00,TxWx,2013-02-20 12:28:00,
2013-02-20 06:33:00,15.2,2.0,30.37,East,100,3.7,4.3,59,0.00,,,0.00,TxWx,2013-02-20 12:33:00,
2013-02-20 06:39:00,15.1,2.0,30.38,NE,55,2.5,3.1,59,0.00,,,0.00,TxWx,2013-02-20 12:39:00,
2013-02-20 06:44:00,15.2,2.0,30.38,East,100,0.0,1.9,60,0.00,,,0.00,TxWx,2013-02-20 12:44:00,
2013-02-20 06:49:00,15.3,3.0,30.39,East,100,1.2,4.3,60,0.00,,,0.00,TxWx,2013-02-20 12:49:00,
2013-02-20 06:54:00,15.3,2.0,30.39,East,100,0.6,3.1,59,0.00,,,0.00,TxWx,2013-02-20 12:54:00,
2013-02-20 06:59:00,15.2,2.0,30.39,NE,55,0.0,0.6,59,0.00,,,0.00,TxWx,2013-02-20 12:59:00,
2013-02-20 07:05:00,15.2,2.0,30.39,ENE,77,0.6,2.5,59,0.00,,,0.00,TxWx,2013-02-20 13:05:00,
2013-02-20 07:10:00,15.2,2.0,30.40,East,100,3.1,4.3,60,0.00,,,0.00,TxWx,2013-02-20 13:10:00,
2013-02-20 07:15:00,15.3,2.0,30.40,SE,145,1.2,5.6,60,0.00,,,0.00,TxWx,2013-02-20 13:15:00,
2013-02-20 07:21:00,15.4,3.0,30.40,East,100,1.9,2.5,60,0.00,,,0.00,TxWx,2013-02-20 13:21:00,
2013-02-20 07:26:00,15.5,3.0,30.41,ENE,77,0.6,3.1,61,0.00,,,0.00,TxWx,2013-02-20 13:26:00,
2013-02-20 07:31:00,15.4,3.0,30.41,ESE,122,1.2,3.1,61,0.00,,,0.00,TxWx,2013-02-20 13:31:00,
2013-02-20 07:37:00,15.6,4.0,30.41,East,100,1.9,4.3,61,0.00,,,0.00,TxWx,2013-02-20 13:37:00,
2013-02-20 07:43:00,15.6,4.0,30.41,NE,55,0.0,3.7,62,0.00,,,0.00,TxWx,2013-02-20 13:43:00,
2013-02-20 07:48:00,15.7,4.0,30.41,ENE,77,2.5,3.1,62,0.00,,,0.00,TxWx,2013-02-20 13:48:00,
2013-02-20 07:53:00,15.6,4.0,30.41,East,100,1.2,3.1,62,0.00,,,0.00,TxWx,2013-02-20 13:53:00,
2013-02-20 07:59:00,15.7,4.0,30.41,NE,55,0.6,3.1,62,0.00,,,0.00,TxWx,2013-02-20 13:59:00,
2013-02-20 08:04:00,15.9,4.0,30.41,ENE,77,1.9,5.0,62,0.00,,,0.00,TxWx,2013-02-20 14:04:00,
2013-02-20 08:09:00,16.1,4.0,30.40,ENE,77,1.9,4.3,62,0.00,,,0.00,TxWx,2013-02-20 14:09:00,
2013-02-20 08:15:00,16.0,4.0,30.40,NE,55,0.6,4.3,62,0.00,,,0.00,TxWx,2013-02-20 14:15:00,
2013-02-20 08:20:00,16.2,4.0,30.40,NE,55,4.3,4.3,63,0.00,,,0.00,TxWx,2013-02-20 14:20:00,
2013-02-20 08:25:00,16.2,4.0,30.41,ENE,77,0.6,4.3,61,0.00,,,0.00,TxWx,2013-02-20 14:25:00,
2013-02-20 08:30:00,16.3,4.0,30.40,North,10,0.0,1.9,63,0.00,,,0.00,TxWx,2013-02-20 14:30:00,
2013-02-20 08:36:00,16.6,5.0,30.40,NE,55,1.9,5.0,62,0.00,,,0.00,TxWx,2013-02-20 14:36:00,
2013-02-20 08:41:00,16.8,5.0,30.40,ESE,122,3.1,5.6,62,0.00,,,0.00,TxWx,2013-02-20 14:41:00,
2013-02-20 08:46:00,16.5,5.0,30.41,NE,55,1.2,4.3,60,0.00,,,0.00,TxWx,2013-02-20 14:46:00,
2013-02-20 08:52:00,16.7,5.0,30.41,East,100,1.2,5.0,61,0.00,,,0.00,TxWx,2013-02-20 14:52:00,
2013-02-20 08:57:00,16.7,5.0,30.41,ENE,77,1.9,5.6,61,0.00,,,0.00,TxWx,2013-02-20 14:57:00,
2013-02-20 09:02:00,16.8,5.0,30.41,ENE,77,2.5,5.0,61,0.00,,,0.00,TxWx,2013-02-20 15:02:00,
2013-02-20 09:08:00,16.8,5.0,30.42,East,100,5.0,6.2,61,0.00,,,0.00,TxWx,2013-02-20 15:08:00,
2013-02-20 09:13:00,16.9,5.0,30.43,ENE,77,0.6,2.5,61,0.00,,,0.00,TxWx,2013-02-20 15:13:00,
2013-02-20 09:19:00,17.1,5.0,30.43,East,100,3.1,3.1,61,0.00,,,0.00,TxWx,2013-02-20 15:19:00,
2013-02-20 09:24:00,17.3,5.0,30.43,ENE,77,0.0,1.2,62,0.00,,,0.00,TxWx,2013-02-20 15:24:00,
2013-02-20 09:30:00,17.5,5.0,30.43,ENE,77,2.5,4.3,62,0.00,,,0.00,TxWx,2013-02-20 15:30:00,
2013-02-20 09:35:00,17.5,5.0,30.43,ENE,77,0.0,5.0,62,0.00,,,0.00,TxWx,2013-02-20 15:35:00,
2013-02-20 09:40:00,17.5,6.0,30.42,ENE,77,1.2,4.3,61,0.00,,,0.00,TxWx,2013-02-20 15:40:00,
2013-02-20 09:47:00,17.7,6.0,30.42,ENE,77,1.9,4.3,61,0.00,,,0.00,TxWx,2013-02-20 15:47:00,
2013-02-20 09:52:00,17.9,5.0,30.42,ENE,77,0.0,0.6,60,0.00,,,0.00,TxWx,2013-02-20 15:52:00,
2013-02-20 09:57:00,18.0,5.0,30.43,ENE,77,0.0,0.6,60,0.00,,,0.00,TxWx,2013-02-20 15:57:00,
2013-02-20 10:02:00,17.8,5.0,30.43,ENE,77,2.5,2.5,59,0.00,,,0.00,TxWx,2013-02-20 16:02:00,
2013-02-20 10:08:00,17.9,6.0,30.44,NNW,347,0.0,2.5,61,0.00,,,0.00,TxWx,2013-02-20 16:08:00,
2013-02-20 10:13:00,17.6,5.0,30.44,NNE,32,0.6,1.2,60,0.00,,,0.00,TxWx,2013-02-20 16:13:00,
2013-02-20 10:19:00,17.8,5.0,30.44,NE,55,0.0,0.0,60,0.00,,,0.00,TxWx,2013-02-20 16:19:00,
2013-02-20 10:24:00,18.0,6.0,30.44,East,100,0.0,1.2,61,0.00,,,0.00,TxWx,2013-02-20 16:24:00,
2013-02-20 10:29:00,18.1,6.0,30.44,ENE,77,0.6,2.5,61,0.00,,,0.00,TxWx,2013-02-20 16:29:00,
2013-02-20 10:34:00,18.3,6.0,30.44,ENE,77,0.6,1.9,61,0.00,,,0.00,TxWx,2013-02-20 16:34:00,
2013-02-20 10:40:00,18.2,6.0,30.43,SSW,212,0.6,1.9,61,0.00,,,0.00,TxWx,2013-02-20 16:40:00,
2013-02-20 10:45:00,18.4,5.0,30.43,ENE,77,0.0,1.2,60,0.00,,,0.00,TxWx,2013-02-20 16:45:00,
2013-02-20 10:50:00,18.5,7.0,30.43,ENE,77,1.2,3.1,61,0.00,,,0.00,TxWx,2013-02-20 16:50:00,
2013-02-20 10:55:00,18.4,6.0,30.42,ENE,77,0.0,0.6,61,0.00,,,0.00,TxWx,2013-02-20 16:55:00,
2013-02-20 11:01:00,18.6,7.0,30.42,NE,55,0.6,3.7,61,0.00,,,0.00,TxWx,2013-02-20 17:01:00,
2013-02-20 11:06:00,18.8,7.0,30.42,East,100,1.2,2.5,61,0.00,,,0.00,TxWx,2013-02-20 17:06:00,
2013-02-20 11:12:00,19.1,7.0,30.41,ENE,77,0.6,3.1,61,0.00,,,0.00,TxWx,2013-02-20 17:12:00,
2013-02-20 11:17:00,19.2,7.0,30.41,East,100,2.5,4.3,61,0.00,,,0.00,TxWx,2013-02-20 17:17:00,
2013-02-20 11:22:00,19.3,7.0,30.41,ENE,77,2.5,3.1,61,0.00,,,0.00,TxWx,2013-02-20 17:22:00,
2013-02-20 11:28:00,19.3,6.0,30.41,North,10,1.2,4.3,60,0.00,,,0.00,TxWx,2013-02-20 17:28:00,
2013-02-20 11:33:00,19.3,6.0,30.41,NE,55,1.9,3.1,60,0.00,,,0.00,TxWx,2013-02-20 17:33:00,
2013-02-20 11:38:00,19.6,7.0,30.41,NE,55,3.7,5.0,60,0.00,,,0.00,TxWx,2013-02-20 17:38:00,
2013-02-20 11:43:00,19.7,7.0,30.41,ENE,77,1.2,4.3,59,0.00,,,0.00,TxWx,2013-02-20 17:43:00,
2013-02-20 11:48:00,19.7,7.0,30.41,ESE,122,3.7,6.2,59,0.00,,,0.00,TxWx,2013-02-20 17:48:00,
2013-02-20 11:54:00,19.7,7.0,30.40,East,100,1.9,4.3,58,0.00,,,0.00,TxWx,2013-02-20 17:54:00,
2013-02-20 11:59:00,19.7,7.0,30.39,ENE,77,4.3,5.0,58,0.00,,,0.00,TxWx,2013-02-20 17:59:00,
2013-02-20 12:05:00,19.7,7.0,30.39,NE,55,4.3,4.3,60,0.00,,,0.00,TxWx,2013-02-20 18:05:00,
2013-02-20 12:10:00,19.9,7.0,30.38,ENE,77,1.9,4.3,60,0.00,,,0.00,TxWx,2013-02-20 18:10:00,
2013-02-20 12:15:00,20.2,7.0,30.38,NE,55,4.3,4.3,60,0.00,,,0.00,TxWx,2013-02-20 18:15:00,
2013-02-20 12:22:00,20.2,7.0,30.38,ESE,122,4.3,6.8,59,0.00,,,0.00,TxWx,2013-02-20 18:22:00,
2013-02-20 12:27:00,20.3,7.0,30.37,NE,55,1.2,6.8,59,0.00,,,0.00,TxWx,2013-02-20 18:27:00,
2013-02-20 12:32:00,20.2,7.0,30.36,ENE,77,2.5,5.0,59,0.00,,,0.00,TxWx,2013-02-20 18:32:00,
2013-02-20 12:37:00,20.3,7.0,30.37,ESE,122,4.3,5.6,60,0.00,,,0.00,TxWx,2013-02-20 18:37:00,
2013-02-20 12:43:00,20.6,8.0,30.36,ESE,122,3.7,5.0,60,0.00,,,0.00,TxWx,2013-02-20 18:43:00,
2013-02-20 12:48:00,20.8,8.0,30.36,ENE,77,5.6,5.6,60,0.00,,,0.00,TxWx,2013-02-20 18:48:00,
2013-02-20 12:53:00,21.0,8.0,30.34,ENE,77,3.7,4.3,59,0.00,,,0.00,TxWx,2013-02-20 18:53:00,
2013-02-20 12:59:00,21.1,8.0,30.34,ENE,77,4.3,6.2,59,0.00,,,0.00,TxWx,2013-02-20 18:59:00,
2013-02-20 13:04:00,21.2,8.0,30.33,East,100,3.7,5.6,60,0.00,,,0.00,TxWx,2013-02-20 19:04:00,
2013-02-20 13:10:00,21.3,8.0,30.34,ENE,77,3.1,4.3,59,0.00,,,0.00,TxWx,2013-02-20 19:10:00,
2013-02-20 13:15:00,21.4,8.0,30.33,ENE,77,3.1,6.2,60,0.00,,,0.00,TxWx,2013-02-20 19:15:00,
2013-02-20 13:20:00,21.3,8.0,30.33,SE,145,3.1,5.6,58,0.00,,,0.00,TxWx,2013-02-20 19:20:00,
2013-02-20 13:25:00,21.2,8.0,30.33,ESE,122,2.5,3.7,59,0.00,,,0.00,TxWx,2013-02-20 19:25:00,
2013-02-20 13:30:00,21.4,8.0,30.32,ENE,77,3.7,5.0,60,0.00,,,0.00,TxWx,2013-02-20 19:30:00,
2013-02-20 13:35:00,21.5,9.0,30.32,East,100,4.3,4.3,60,0.00,,,0.00,TxWx,2013-02-20 19:35:00,
2013-02-20 13:40:00,21.8,9.0,30.32,NE,55,0.0,4.3,60,0.00,,,0.00,TxWx,2013-02-20 19:40:00,
2013-02-20 13:45:00,21.9,9.0,30.31,NE,55,0.0,6.8,59,0.00,,,0.00,TxWx,2013-02-20 19:45:00,
2013-02-20 13:51:00,21.9,8.0,30.31,ESE,122,6.2,6.2,58,0.00,,,0.00,TxWx,2013-02-20 19:51:00,
2013-02-20 13:56:00,22.1,9.0,30.31,East,100,4.3,6.2,59,0.00,,,0.00,TxWx,2013-02-20 19:56:00,
2013-02-20 14:01:00,22.4,9.0,30.31,East,100,3.1,6.2,59,0.00,,,0.00,TxWx,2013-02-20 20:01:00,
2013-02-20 14:07:00,22.5,9.0,30.30,NE,55,2.5,3.7,58,0.00,,,0.00,TxWx,2013-02-20 20:07:00,
2013-02-20 14:12:00,22.6,9.0,30.30,East,100,5.0,8.0,58,0.00,,,0.00,TxWx,2013-02-20 20:12:00,
2013-02-20 14:18:00,22.6,9.0,30.30,ESE,122,6.2,8.0,57,0.00,,,0.00,TxWx,2013-02-20 20:18:00,
2013-02-20 14:23:00,22.8,9.0,30.30,East,100,5.0,6.2,57,0.00,,,0.00,TxWx,2013-02-20 20:23:00,
2013-02-20 14:28:00,22.8,9.0,30.29,ESE,122,5.0,7.4,57,0.00,,,0.00,TxWx,2013-02-20 20:28:00,
2013-02-20 14:34:00,22.7,9.0,30.29,SE,145,3.1,7.4,57,0.00,,,0.00,TxWx,2013-02-20 20:34:00,
2013-02-20 14:39:00,22.5,9.0,30.29,East,100,4.3,4.3,57,0.00,,,0.00,TxWx,2013-02-20 20:39:00,
2013-02-20 14:44:00,22.7,10.0,30.28,ENE,77,0.6,4.3,59,0.00,,,0.00,TxWx,2013-02-20 20:44:00,
2013-02-20 14:50:00,22.9,9.0,30.28,East,100,4.3,5.0,58,0.00,,,0.00,TxWx,2013-02-20 20:50:00,
2013-02-20 14:55:00,23.1,10.0,30.28,NE,55,5.0,6.2,59,0.00,,,0.00,TxWx,2013-02-20 20:55:00,
2013-02-20 15:00:00,23.1,9.0,30.28,SSE,167,1.2,5.6,58,0.00,,,0.00,TxWx,2013-02-20 21:00:00,
2013-02-20 15:06:00,23.2,10.0,30.28,ESE,122,4.3,5.6,59,0.00,,,0.00,TxWx,2013-02-20 21:06:00,
2013-02-20 15:12:00,23.3,10.0,30.28,NE,55,5.6,5.6,59,0.00,,,0.00,TxWx,2013-02-20 21:12:00,
2013-02-20 15:17:00,23.6,11.0,30.28,ENE,77,3.7,4.3,59,0.00,,,0.00,TxWx,2013-02-20 21:17:00,
2013-02-20 15:23:00,23.9,10.0,30.28,ENE,77,0.0,3.1,58,0.00,,,0.00,TxWx,2013-02-20 21:23:00,
2013-02-20 15:28:00,24.1,11.0,30.27,ENE,77,1.9,5.6,59,0.00,,,0.00,TxWx,2013-02-20 21:28:00,
2013-02-20 15:33:00,24.3,10.0,30.28,East,100,1.9,4.3,58,0.00,,,0.00,TxWx,2013-02-20 21:33:00,
2013-02-20 15:38:00,24.5,10.0,30.27,ENE,77,4.3,5.0,58,0.00,,,0.00,TxWx,2013-02-20 21:38:00,
2013-02-20 15:44:00,24.5,11.0,30.27,ENE,77,1.2,3.7,57,0.00,,,0.00,TxWx,2013-02-20 21:44:00,
2013-02-20 15:49:00,24.6,11.0,30.26,NE,55,2.5,3.7,57,0.00,,,0.00,TxWx,2013-02-20 21:49:00,
2013-02-20 15:54:00,24.3,10.0,30.26,East,100,3.1,5.6,57,0.00,,,0.00,TxWx,2013-02-20 21:54:00,
2013-02-20 16:00:00,24.1,10.0,30.26,ENE,77,1.2,6.2,57,0.00,,,0.00,TxWx,2013-02-20 22:00:00,
2013-02-20 16:05:00,24.1,11.0,30.26,ENE,77,1.2,3.7,59,0.00,,,0.00,TxWx,2013-02-20 22:05:00,
2013-02-20 16:10:00,24.0,10.0,30.26,SE,145,0.6,5.0,58,0.00,,,0.00,TxWx,2013-02-20 22:10:00,
2013-02-20 16:16:00,23.8,10.0,30.26,East,100,8.7,9.3,58,0.00,,,0.00,TxWx,2013-02-20 22:16:00,
2013-02-20 16:21:00,23.9,10.0,30.25,NE,55,3.1,6.2,58,0.00,,,0.00,TxWx,2013-02-20 22:21:00,
2013-02-20 16:27:00,24.0,10.0,30.25,East,100,2.5,5.6,58,0.00,,,0.00,TxWx,2013-02-20 22:27:00,
2013-02-20 16:32:00,24.1,10.0,30.25,ENE,77,1.2,5.6,58,0.00,,,0.00,TxWx,2013-02-20 22:32:00,
2013-02-20 16:37:00,24.3,11.0,30.25,East,100,3.7,5.6,59,0.00,,,0.00,TxWx,2013-02-20 22:37:00,
2013-02-20 16:44:00,24.3,11.0,30.26,ESE,122,0.6,8.0,59,0.00,,,0.00,TxWx,2013-02-20 22:44:00,
2013-02-20 16:49:00,24.1,10.0,30.25,East,100,3.7,5.0,58,0.00,,,0.00,TxWx,2013-02-20 22:49:00,
2013-02-20 16:54:00,24.1,10.0,30.24,East,100,3.1,3.7,58,0.00,,,0.00,TxWx,2013-02-20 22:54:00,
2013-02-20 17:00:00,24.1,10.0,30.25,East,100,2.5,6.2,58,0.00,,,0.00,TxWx,2013-02-20 23:00:00,
2013-02-20 17:05:00,23.9,11.0,30.25,ENE,77,6.2,6.2,59,0.00,,,0.00,TxWx,2013-02-20 23:05:00,
2013-02-20 17:10:00,23.9,11.0,30.25,ENE,77,2.5,5.0,59,0.00,,,0.00,TxWx,2013-02-20 23:10:00,
2013-02-20 17:15:00,23.8,11.0,30.26,ESE,122,3.1,5.0,59,0.00,,,0.00,TxWx,2013-02-20 23:15:00,
2013-02-20 17:20:00,23.8,11.0,30.26,ENE,77,1.9,3.1,59,0.00,,,0.00,TxWx,2013-02-20 23:20:00,
2013-02-20 17:26:00,23.9,11.0,30.25,ENE,77,3.1,3.7,60,0.00,,,0.00,TxWx,2013-02-20 23:26:00,
2013-02-20 17:31:00,23.9,11.0,30.25,ESE,122,3.1,5.0,60,0.00,,,0.00,TxWx,2013-02-20 23:31:00,
2013-02-20 17:36:00,24.0,11.0,30.25,SE,145,5.0,6.8,60,0.00,,,0.00,TxWx,2013-02-20 23:36:00,
2013-02-20 17:42:00,23.9,11.0,30.26,ESE,122,3.7,5.0,60,0.00,,,0.00,TxWx,2013-02-20 23:42:00,
2013-02-20 17:47:00,23.9,11.0,30.25,ENE,77,5.0,5.0,60,0.00,,,0.00,TxWx,2013-02-20 23:47:00,
2013-02-20 17:52:00,23.9,11.0,30.26,East,100,0.6,3.7,61,0.00,,,0.00,TxWx,2013-02-20 23:52:00,
2013-02-20 17:58:00,23.9,11.0,30.26,NNE,32,1.2,3.7,61,0.00,,,0.00,TxWx,2013-02-20 23:58:00,
2013-02-20 18:03:00,23.9,12.0,30.26,East,100,5.0,5.6,62,0.00,,,0.00,TxWx,2013-02-21 00:03:00,
2013-02-20 18:08:00,23.8,11.0,30.26,ENE,77,1.9,4.3,61,0.00,,,0.00,TxWx,2013-02-21 00:08:00,
2013-02-20 18:14:00,23.9,12.0,30.25,East,100,2.5,4.3,62,0.00,,,0.00,TxWx,2013-02-21 00:14:00,
2013-02-20 18:19:00,23.9,12.0,30.25,East,100,1.2,3.1,62,0.00,,,0.00,TxWx,2013-02-21 00:19:00,
2013-02-20 18:25:00,23.8,12.0,30.26,East,100,3.1,5.6,62,0.00,,,0.00,TxWx,2013-02-21 00:25:00,
2013-02-20 18:31:00,23.8,12.0,30.26,East,100,1.9,6.8,62,0.00,,,0.00,TxWx,2013-02-21 00:31:00,
2013-02-20 18:36:00,23.8,12.0,30.26,NE,55,1.9,3.1,62,0.00,,,0.00,TxWx,2013-02-21 00:36:00,
2013-02-20 18:41:00,23.8,12.0,30.26,East,100,3.7,3.7,64,0.00,,,0.00,TxWx,2013-02-21 00:41:00,
2013-02-20 18:46:00,23.8,12.0,30.25,East,100,2.5,6.8,63,0.00,,,0.00,TxWx,2013-02-21 00:46:00,
2013-02-20 18:51:00,23.8,12.0,30.25,East,100,3.7,7.4,63,0.00,,,0.00,TxWx,2013-02-21 00:51:00,
2013-02-20 18:57:00,23.8,12.0,30.25,East,100,3.1,7.4,63,0.00,,,0.00,TxWx,2013-02-21 00:57:00,
2013-02-20 19:02:00,23.7,12.0,30.24,East,100,3.7,5.0,63,0.00,,,0.00,TxWx,2013-02-21 01:02:00,
2013-02-20 19:08:00,23.8,12.0,30.25,ENE,77,1.9,5.0,64,0.00,,,0.00,TxWx,2013-02-21 01:08:00,
2013-02-20 19:13:00,23.7,12.0,30.25,ESE,122,3.7,6.2,63,0.00,,,0.00,TxWx,2013-02-21 01:13:00,
2013-02-20 19:18:00,23.8,12.0,30.25,ENE,77,0.6,3.1,63,0.00,,,0.00,TxWx,2013-02-21 01:18:00,
2013-02-20 19:24:00,23.8,12.0,30.25,East,100,0.6,3.1,63,0.00,,,0.00,TxWx,2013-02-21 01:24:00,
2013-02-20 19:29:00,23.9,12.0,30.25,ENE,77,3.1,3.1,63,0.00,,,0.00,TxWx,2013-02-21 01:29:00,
2013-02-20 19:35:00,23.9,12.0,30.25,ENE,77,2.5,8.0,63,0.00,,,0.00,TxWx,2013-02-21 01:35:00,
2013-02-20 19:40:00,24.0,12.0,30.25,East,100,5.6,5.6,62,0.00,,,0.00,TxWx,2013-02-21 01:40:00,
2013-02-20 19:46:00,23.9,12.0,30.24,ENE,77,5.0,10.5,62,0.00,,,0.00,TxWx,2013-02-21 01:46:00,
2013-02-20 19:51:00,23.8,12.0,30.24,NE,55,4.3,6.2,62,0.00,,,0.00,TxWx,2013-02-21 01:51:00,
2013-02-20 19:56:00,23.8,12.0,30.24,ENE,77,2.5,6.8,63,0.00,,,0.00,TxWx,2013-02-21 01:56:00,
2013-02-20 20:02:00,23.7,12.0,30.23,NE,55,2.5,6.2,63,0.00,,,0.00,TxWx,2013-02-21 02:02:00,
2013-02-20 20:07:00,23.6,12.0,30.23,NE,55,1.2,2.5,63,0.00,,,0.00,TxWx,2013-02-21 02:07:00,
2013-02-20 20:13:00,23.7,12.0,30.24,SE,145,8.7,8.7,63,0.00,,,0.00,TxWx,2013-02-21 02:13:00,
2013-02-20 20:18:00,23.7,12.0,30.24,ENE,77,5.0,6.2,64,0.00,,,0.00,TxWx,2013-02-21 02:18:00,
2013-02-20 20:23:00,23.6,12.0,30.25,ENE,77,2.5,4.3,63,0.00,,,0.00,TxWx,2013-02-21 02:23:00,
2013-02-20 20:28:00,23.7,12.0,30.24,NE,55,3.7,9.3,64,0.00,,,0.00,TxWx,2013-02-21 02:28:00,
2013-02-20 20:34:00,23.8,12.0,30.24,ENE,77,3.1,6.2,64,0.00,,,0.00,TxWx,2013-02-21 02:34:00,
2013-02-20 20:39:00,23.8,12.0,30.24,ESE,122,1.2,3.1,64,0.00,,,0.00,TxWx,2013-02-21 02:39:00,
2013-02-20 20:45:00,23.9,12.0,30.24,ENE,77,1.9,5.6,64,0.00,,,0.00,TxWx,2013-02-21 02:45:00,
2013-02-20 20:50:00,23.9,13.0,30.24,NE,55,2.5,8.7,64,0.00,,,0.00,TxWx,2013-02-21 02:50:00,
2013-02-20 20:56:00,23.9,13.0,30.25,East,100,2.5,3.7,64,0.00,,,0.00,TxWx,2013-02-21 02:56:00,
2013-02-20 21:01:00,23.8,13.0,30.24,NNE,32,0.6,2.5,65,0.00,,,0.00,TxWx,2013-02-21 03:01:00,
2013-02-20 21:06:00,23.8,13.0,30.25,East,100,5.6,6.2,65,0.00,,,0.00,TxWx,2013-02-21 03:06:00,
2013-02-20 21:12:00,23.7,13.0,30.25,ENE,77,2.5,4.3,65,0.00,,,0.00,TxWx,2013-02-21 03:12:00,
2013-02-20 21:17:00,23.6,13.0,30.25,ENE,77,6.8,7.4,65,0.00,,,0.00,TxWx,2013-02-21 03:17:00,
2013-02-20 21:23:00,23.5,12.0,30.25,East,100,4.3,5.0,65,0.00,,,0.00,TxWx,2013-02-21 03:23:00,
2013-02-20 21:28:00,23.5,12.0,30.25,East,100,1.9,6.8,66,0.00,,,0.00,TxWx,2013-02-21 03:28:00,
2013-02-20 21:34:00,23.5,12.0,30.25,ENE,77,1.2,4.3,66,0.00,,,0.00,TxWx,2013-02-21 03:34:00,
2013-02-20 21:39:00,23.4,12.0,30.26,ENE,77,2.5,4.3,66,0.00,,,0.00,TxWx,2013-02-21 03:39:00,
2013-02-20 21:45:00,23.3,12.0,30.26,East,100,1.9,6.2,66,0.00,,,0.00,TxWx,2013-02-21 03:45:00,
2013-02-20 21:50:00,23.1,12.0,30.26,ESE,122,4.3,6.8,66,0.00,,,0.00,TxWx,2013-02-21 03:50:00,
2013-02-20 21:56:00,23.1,13.0,30.26,East,100,3.1,3.7,67,0.00,,,0.00,TxWx,2013-02-21 03:56:00,
2013-02-20 22:01:00,23.0,13.0,30.26,NE,55,1.9,3.7,67,0.00,,,0.00,TxWx,2013-02-21 04:01:00,
2013-02-20 22:06:00,22.8,13.0,30.25,ESE,122,4.3,6.2,67,0.00,,,0.00,TxWx,2013-02-21 04:06:00,
2013-02-20 22:13:00,22.6,13.0,30.25,East,100,6.8,8.7,68,0.00,,,0.00,TxWx,2013-02-21 04:13:00,
2013-02-20 22:18:00,22.6,13.0,30.24,NE,55,3.7,5.6,68,0.00,,,0.00,TxWx,2013-02-21 04:18:00,
2013-02-20 22:23:00,22.4,12.0,30.24,ENE,77,1.9,2.5,69,0.00,,,0.00,TxWx,2013-02-21 04:23:00,
2013-02-20 22:28:00,22.2,12.0,30.24,ENE,77,0.6,3.7,69,0.00,,,0.00,TxWx,2013-02-21 04:28:00,
2013-02-20 22:33:00,22.1,12.0,30.24,ENE,77,2.5,3.1,69,0.00,,,0.00,TxWx,2013-02-21 04:33:00,
2013-02-20 22:39:00,22.1,12.0,30.25,ENE,77,1.9,4.3,69,0.00,,,0.00,TxWx,2013-02-21 04:39:00,
2013-02-20 22:44:00,21.9,13.0,30.25,East,100,2.5,4.3,70,0.00,,,0.00,TxWx,2013-02-21 04:44:00,
2013-02-20 22:49:00,21.8,13.0,30.26,ESE,122,6.2,6.8,70,0.00,,,0.00,TxWx,2013-02-21 04:49:00,
2013-02-20 22:54:00,21.8,13.0,30.26,ESE,122,3.7,6.8,71,0.00,,,0.00,TxWx,2013-02-21 04:54:00,
2013-02-20 22:59:00,21.8,13.0,30.26,East,100,1.9,4.3,71,0.00,,,0.00,TxWx,2013-02-21 04:59:00,
2013-02-20 23:01:00,21.8,13.0,30.26,NNE,32,1.9,3.7,71,0.00,,,0.00,TxWx,2013-02-21 05:01:00,
2013-02-20 23:02:00,21.8,13.0,30.26,NE,55,2.5,3.1,71,0.00,,,0.00,TxWx,2013-02-21 05:02:00,
2013-02-20 23:03:00,21.8,13.0,30.26,NE,55,1.2,2.5,71,0.00,,,0.00,TxWx,2013-02-21 05:03:00,
2013-02-20 23:08:00,21.7,13.0,30.25,ENE,77,3.1,5.6,71,0.00,,,0.00,TxWx,2013-02-21 05:08:00,
2013-02-20 23:10:00,21.8,13.0,30.25,SE,145,3.1,3.7,71,0.00,,,0.00,TxWx,2013-02-21 05:10:00,
2013-02-20 23:16:00,21.7,13.0,30.25,East,100,3.1,3.1,71,0.00,,,0.00,TxWx,2013-02-21 05:16:00,
2013-02-20 23:21:00,21.7,13.0,30.25,East,100,1.9,7.4,71,0.00,,,0.00,TxWx,2013-02-21 05:21:00,
2013-02-20 23:26:00,21.7,13.0,30.25,East,100,3.7,7.4,71,0.00,,,0.00,TxWx,2013-02-21 05:26:00,
2013-02-20 23:32:00,21.7,13.0,30.24,ENE,77,3.1,4.3,72,0.00,,,0.00,TxWx,2013-02-21 05:32:00,
2013-02-20 23:37:00,21.9,13.0,30.25,ESE,122,5.0,12.4,72,0.00,,,0.00,TxWx,2013-02-21 05:37:00,
2013-02-20 23:43:00,21.9,13.0,30.24,ENE,77,6.2,9.3,72,0.00,,,0.00,TxWx,2013-02-21 05:43:00,
2013-02-20 23:48:00,21.9,13.0,30.24,SE,145,6.2,8.7,71,0.00,,,0.00,TxWx,2013-02-21 05:48:00,
2013-02-20 23:53:00,21.9,13.0,30.25,ESE,122,1.9,5.0,71,0.00,,,0.00,TxWx,2013-02-21 05:53:00,
2013-02-20 23:59:00,22.0,13.0,30.25,ESE,122,1.9,6.2,71,0.00,,,0.00,TxWx,2013-02-21 05:59:00,